WA4ISB-1 Sarasota FL US current weather conditions

sailwx.info

Wind from 144 at 1 knots gusting 3

Air temperature 25.6° C
Dewpoint 22.0° C

Last reported at 2020-Aug-15 09:06 UTC.
Time now 2020-Aug-15 09:50 UTC

Location: N 27°21' W 082°30'.
View on Google Maps.

See reports from other nearby stations

  
Tides and Currents Weather Stations Pressure Air Temp Water Temp Dewpoint Dewpoint Depression Visibility Wind Speed Wind Dir Waves Ship Positions
date/time (UTC)wind fromknots sea level pressurealtimeterstation pressurevisibilityair tempwater tempwave heightnotes
2020-Aug-15 09:06 144 1 gusting 3 25.6
2020-Aug-15 08:56 135 1 gusting 2 25.6
2020-Aug-15 08:36 146 25.6
2020-Aug-15 08:31 099 0 gusting 0 25.6
2020-Aug-15 08:26 126 0 gusting 1 25.6
2020-Aug-15 08:21 163 25.6
2020-Aug-15 08:16 127 1 gusting 3 25.6
2020-Aug-15 08:11 130 1 gusting 4 25.6
2020-Aug-15 08:06 139 1 gusting 4 25.6
2020-Aug-15 08:01 111 0 gusting 3 25.6
2020-Aug-15 07:56 120 1 gusting 4 25.6
2020-Aug-15 07:51 150 2 gusting 3 25.6
2020-Aug-15 07:41 132 1 gusting 3 26.1
2020-Aug-15 07:36 168 2 gusting 3 26.1
2020-Aug-15 07:26 140 1 gusting 1 26.1
2020-Aug-15 07:06 081 26.1
2020-Aug-15 06:51 081 26.7
2020-Aug-15 06:41 125 0 gusting 4 26.7
2020-Aug-15 06:36 085 0 gusting 4 26.7
2020-Aug-15 06:26 143 1 gusting 2 26.7
2020-Aug-15 06:21 158 1 gusting 3 26.7
2020-Aug-15 06:11 168 26.7
2020-Aug-15 06:01 168 26.7
2020-Aug-15 05:51 168 26.7
2020-Aug-15 05:36 168 26.7
2020-Aug-15 05:26 168 26.7
2020-Aug-15 05:21 217 26.7
2020-Aug-15 05:16 120 26.7
2020-Aug-15 05:01 120 26.7
2020-Aug-15 04:56 116 26.7
2020-Aug-15 04:51 116 26.7
2020-Aug-15 04:41 116 26.7
2020-Aug-15 04:21 098 27.2
2020-Aug-15 03:31 102 1 gusting 2 27.8
2020-Aug-15 03:26 102 27.8
2020-Aug-15 03:21 059 27.8
2020-Aug-15 03:11 177 27.8
2020-Aug-15 03:06 177 27.8
2020-Aug-15 03:01 177 27.8
2020-Aug-15 02:56 181 27.8
2020-Aug-15 02:51 056 27.8
2020-Aug-15 02:46 123 28.3
2020-Aug-15 02:41 123 28.3
2020-Aug-15 02:26 123 28.3
2020-Aug-15 02:16 125 1 gusting 3 28.3
2020-Aug-15 02:11 157 1 gusting 4 28.3
2020-Aug-15 02:01 123 2 gusting 4 28.3
2020-Aug-15 01:56 151 3 gusting 6 28.3
2020-Aug-15 01:51 149 3 gusting 5 28.9
2020-Aug-15 01:41 109 1 gusting 4 28.9
2020-Aug-15 01:36 144 2 gusting 6 28.9
2020-Aug-15 01:21 111 0 gusting 3 30.0
2020-Aug-15 01:15 090 0 gusting 2 30.0
2020-Aug-15 01:11 090 0 gusting 2 30.0
2020-Aug-15 01:06 157 30.0
2020-Aug-15 01:01 157 30.0
2020-Aug-15 00:56 157 30.0
2020-Aug-15 00:51 157 30.0
2020-Aug-15 00:41 157 30.0
2020-Aug-15 00:36 157 30.0
2020-Aug-15 00:31 157 30.0
2020-Aug-15 00:21 157 30.0
2020-Aug-15 00:11 157 30.0
2020-Aug-15 00:06 157 30.0
2020-Aug-15 00:01 201 30.6
2020-Aug-14 23:56 275 30.6
2020-Aug-14 23:51 275 30.6
2020-Aug-14 23:41 305 30.6
2020-Aug-14 23:36 243 31.1
2020-Aug-14 23:31 243 31.1
2020-Aug-14 23:26 293 31.1
2020-Aug-14 23:21 292 31.1
2020-Aug-14 23:19 074 31.1
2020-Aug-14 23:11 074 31.1
2020-Aug-14 23:06 053 31.1
2020-Aug-14 23:03 291 0 gusting 3 30.6
2020-Aug-14 22:56 291 0 gusting 3 30.6
2020-Aug-14 22:51 230 30.6
2020-Aug-14 22:41 293 1 gusting 5 30.6
2020-Aug-14 22:31 327 30.6
2020-Aug-14 22:26 181 30.6
2020-Aug-14 22:21 310 1 gusting 3 31.1
2020-Aug-14 22:16 317 0 gusting 2 31.1
2020-Aug-14 22:11 289 0 gusting 4 31.1
2020-Aug-14 22:06 300 31.1
2020-Aug-14 22:01 199 31.1
2020-Aug-14 21:56 329 2 gusting 4 31.1
2020-Aug-14 21:51 329 31.7
2020-Aug-14 21:41 279 0 gusting 4 32.2
2020-Aug-14 21:36 295 3 gusting 6 32.2
2020-Aug-14 21:31 222 32.2
2020-Aug-14 21:25 288 32.2
2020-Aug-14 21:20 286 2 gusting 5 32.2
2020-Aug-14 21:10 282 1 gusting 5 32.2
2020-Aug-14 21:05 049 0 gusting 7 32.2
2020-Aug-14 21:00 248 0 gusting 4 32.2
2020-Aug-14 20:55 260 2 gusting 2 32.2
2020-Aug-14 20:40 284 1 gusting 6 32.8
2020-Aug-14 20:35 265 1 gusting 8 32.8
2020-Aug-14 20:30 296 0 gusting 6 32.8
2020-Aug-14 20:25 285 1 gusting 6 32.8
2020-Aug-14 20:20 289 32.2
2020-Aug-14 20:15 222 0 gusting 6 32.2
2020-Aug-14 20:10 108 32.2
2020-Aug-14 20:00 305 0 gusting 5 32.8
2020-Aug-14 19:57 305 2 gusting 7 32.8
2020-Aug-14 19:50 137 32.8
2020-Aug-14 19:40 305 2 gusting 7 32.8
2020-Aug-14 19:35 264 32.8
2020-Aug-14 19:30 230 32.8
2020-Aug-14 19:25 192 32.8
2020-Aug-14 19:22 161 0 gusting 6 32.8
2020-Aug-14 19:15 243 32.8
2020-Aug-14 19:10 312 3 gusting 5 32.8
2020-Aug-14 19:05 355 32.8
2020-Aug-14 19:00 161 0 gusting 6 32.8
2020-Aug-14 18:55 292 6 gusting 7 32.8
2020-Aug-14 18:50 261 0 gusting 5 32.8
2020-Aug-14 18:45 326 32.8
2020-Aug-14 18:40 154 32.8
2020-Aug-14 18:35 240 1 gusting 2 32.8
2020-Aug-14 18:30 233 0 gusting 3 32.8
2020-Aug-14 18:25 229 32.8
2020-Aug-14 18:20 201 1 gusting 3 32.8
2020-Aug-14 18:15 150 32.8
2020-Aug-14 18:05 240 32.8
2020-Aug-14 18:02 270 0 gusting 6 32.8
2020-Aug-14 17:55 129 33.3
2020-Aug-14 17:45 270 0 gusting 6 32.8
2020-Aug-14 17:40 206 0 gusting 5 32.8
2020-Aug-14 17:35 267 1 gusting 5 32.8
2020-Aug-14 17:30 262 0 gusting 9 32.8
2020-Aug-14 17:25 258 0 gusting 8 32.8
2020-Aug-14 17:20 243 4 gusting 6 32.8
2020-Aug-14 17:15 257 32.8
2020-Aug-14 17:12 180 32.2
2020-Aug-14 17:05 225 32.8
2020-Aug-14 17:00 180 32.2
2020-Aug-14 16:55 285 0 gusting 4 32.2
2020-Aug-14 16:50 178 31.7
2020-Aug-14 16:46 254 31.7
2020-Aug-14 16:43 219 0 gusting 2 32.2
2020-Aug-14 16:36 219 0 gusting 2 32.2
2020-Aug-14 16:30 229 32.2
2020-Aug-14 16:25 319 2 gusting 5 32.2
2020-Aug-14 16:20 212 2 gusting 3 32.2
2020-Aug-14 16:15 258 0 gusting 4 32.2
2020-Aug-14 16:10 260 32.2
2020-Aug-14 16:05 085 32.2
2020-Aug-14 15:56 333 1 gusting 2 31.7
2020-Aug-14 15:50 216 31.7
2020-Aug-14 15:45 216 31.7
2020-Aug-14 15:40 216 32.2
2020-Aug-14 15:35 184 32.2
2020-Aug-14 15:30 288 32.2
2020-Aug-14 15:25 199 32.2
2020-Aug-14 15:21 149 32.2
2020-Aug-14 15:15 306 32.2
2020-Aug-14 15:10 149 32.2
2020-Aug-14 15:05 338 32.2
2020-Aug-14 15:00 192 32.2
2020-Aug-14 14:55 160 31.7
2020-Aug-14 14:50 157 31.7
2020-Aug-14 14:45 196 31.7
2020-Aug-14 14:40 171 31.7
2020-Aug-14 14:35 156 31.1
2020-Aug-14 14:30 147 0 gusting 4 31.1
2020-Aug-14 14:25 161 31.1
2020-Aug-14 14:20 071 0 gusting 3 30.6
2020-Aug-14 14:15 132 30.6
2020-Aug-14 14:10 016 30.0
2020-Aug-14 14:05 172 0 gusting 2 30.0
2020-Aug-14 14:00 215 30.0
2020-Aug-14 13:55 167 2 gusting 3 29.4
2020-Aug-14 13:50 171 0 gusting 4 29.4
2020-Aug-14 13:45 056 28.9
2020-Aug-14 13:40 160 4 gusting 4 28.9
2020-Aug-14 13:35 192 1 gusting 5 28.9
2020-Aug-14 13:30 149 2 gusting 5 28.9
2020-Aug-14 13:25 150 2 gusting 6 28.3
2020-Aug-14 13:20 201 1 gusting 6 28.3
2020-Aug-14 13:15 153 3 gusting 3 28.3
2020-Aug-14 13:10 149 1 gusting 3 28.3
2020-Aug-14 13:05 133 0 gusting 3 27.8
2020-Aug-14 13:00 187 1 gusting 3 27.2
2020-Aug-14 12:55 170 1 gusting 4 27.2
2020-Aug-14 12:54 140 3 gusting 4 27.2
2020-Aug-14 12:45 032 27.2
2020-Aug-14 12:40 143 1 gusting 2 26.7
2020-Aug-14 12:35 177 1 gusting 2 26.7
2020-Aug-14 12:30 146 2 gusting 2 26.1
2020-Aug-14 12:25 196 0 gusting 3 26.1
2020-Aug-14 12:20 026 26.1
2020-Aug-14 12:15 151 2 gusting 3 25.6
2020-Aug-14 12:10 098 0 gusting 1 25.6
2020-Aug-14 12:05 101 1 gusting 2 25.6
2020-Aug-14 12:00 116 25.0
2020-Aug-14 11:59 165 0 gusting 2 25.0
2020-Aug-14 11:50 165 0 gusting 2 25.0
2020-Aug-14 11:49 120 0 gusting 1 25.0
2020-Aug-14 11:40 118 25.0
2020-Aug-14 11:35 126 0 gusting 0 25.0
2020-Aug-14 11:30 140 25.0
2020-Aug-14 11:26 140 25.0
2020-Aug-14 11:20 140 25.0
2020-Aug-14 11:15 140 25.0
2020-Aug-14 11:10 116 25.0
2020-Aug-14 11:05 112 25.0
2020-Aug-14 11:00 111 25.0
2020-Aug-14 10:55 170 25.0
2020-Aug-14 10:52 149 25.0
2020-Aug-14 10:45 149 25.0
2020-Aug-14 10:35 125 25.0
2020-Aug-14 10:30 125 25.0
2020-Aug-14 10:25 125 25.0
2020-Aug-14 10:20 125 25.0
2020-Aug-14 10:15 161 25.0
2020-Aug-14 10:10 101 25.0
2020-Aug-14 10:05 125 25.0
2020-Aug-14 10:00 142 0 gusting 1 25.0
2020-Aug-14 09:55 101 25.0
2020-Aug-14 09:50 149 25.0
2020-Aug-14 09:45 149 25.0
2020-Aug-14 09:40 149 25.0
2020-Aug-14 09:35 094 25.0
2020-Aug-14 09:30 082 25.0
2020-Aug-14 09:25 019 25.0
2020-Aug-14 09:20 147 1 gusting 2 25.0
2020-Aug-14 09:15 077 25.0
2020-Aug-14 09:10 137 0 gusting 1 25.0
2020-Aug-14 09:05 091 0 gusting 0 25.0
2020-Aug-14 09:00 109 25.0
2020-Aug-14 08:55 002 25.0
2020-Aug-14 08:50 061 25.0
2020-Aug-14 08:45 045 25.0
2020-Aug-14 08:40 082 25.0
2020-Aug-14 08:35 050 25.0
2020-Aug-14 08:30 092 25.0
2020-Aug-14 08:25 056 25.0
2020-Aug-14 08:11 161 25.0
2020-Aug-14 08:10 101 25.0
2020-Aug-14 08:05 161 25.0
2020-Aug-14 08:00 032 25.0
2020-Aug-14 07:55 032 25.0
2020-Aug-14 07:50 011 25.0
2020-Aug-14 07:45 011 25.0
2020-Aug-14 07:40 011 25.0
2020-Aug-14 07:35 011 25.0
2020-Aug-14 07:30 015 25.0
2020-Aug-14 07:25 025 25.0
2020-Aug-14 07:20 025 25.0
2020-Aug-14 07:15 025 25.0
2020-Aug-14 07:10 132 1 gusting 1 25.0
2020-Aug-14 07:05 116 25.0
2020-Aug-14 07:00 122 0 gusting 1 25.0
2020-Aug-14 06:55 132 25.0
2020-Aug-14 06:50 092 25.0
2020-Aug-14 06:45 092 25.0
2020-Aug-14 06:40 009 25.0
2020-Aug-14 06:35 009 25.0
2020-Aug-14 06:30 009 25.0
2020-Aug-14 06:25 009 25.0
2020-Aug-14 06:20 009 25.0
2020-Aug-14 06:15 009 25.0
2020-Aug-14 06:10 009 25.0
2020-Aug-14 06:05 028 0 gusting 1 25.6
2020-Aug-14 05:55 001 25.6
2020-Aug-14 05:50 004 25.6
2020-Aug-14 05:45 330 25.6
2020-Aug-14 05:40 330 25.6
2020-Aug-14 05:35 330 25.6
2020-Aug-14 05:30 094 25.6
2020-Aug-14 05:20 094 25.6
2020-Aug-14 05:15 161 0 gusting 1 25.6
2020-Aug-14 05:10 132 25.6
2020-Aug-14 05:05 139 25.6
2020-Aug-14 05:00 136 2 gusting 2 25.6
2020-Aug-14 04:55 184 1 gusting 1 25.6
2020-Aug-14 04:50 156 1 gusting 3 25.6
2020-Aug-14 04:44 181 1 gusting 4 25.6
2020-Aug-14 04:39 188 0 gusting 3 26.1
2020-Aug-14 04:34 163 0 gusting 2 26.1
2020-Aug-14 04:29 185 1 gusting 1 26.1
2020-Aug-14 04:24 111 26.1
2020-Aug-14 04:19 151 1 gusting 2 26.1
2020-Aug-14 04:14 127 0 gusting 2 26.1
2020-Aug-14 04:09 142 1 gusting 3 26.1
2020-Aug-14 04:04 170 1 gusting 2 26.1
2020-Aug-14 03:59 201 0 gusting 1 26.1
2020-Aug-14 03:49 157 1 gusting 1 26.1
2020-Aug-14 03:44 082 26.1
2020-Aug-14 03:39 082 26.1
2020-Aug-14 03:24 105 26.1
2020-Aug-14 03:19 105 26.1
2020-Aug-14 03:14 125 0 gusting 1 26.1
2020-Aug-14 03:09 125 0 gusting 1 26.1
2020-Aug-14 03:04 081 26.1
2020-Aug-14 02:54 144 1 gusting 2 26.1
2020-Aug-14 02:44 122 0 gusting 3 26.1
2020-Aug-14 02:39 140 26.1
2020-Aug-14 02:34 140 1 gusting 1 26.1
2020-Aug-14 02:19 047 26.1
2020-Aug-14 01:54 154 26.1
2020-Aug-14 01:49 299 0 gusting 1 26.1
2020-Aug-14 01:44 011 0 gusting 2 26.1
2020-Aug-14 01:39 146 26.1
2020-Aug-14 01:34 087 26.1
2020-Aug-14 01:24 056 0 gusting 2 26.1
2020-Aug-14 01:19 091 0 gusting 1 26.1
2020-Aug-14 01:14 091 26.1
2020-Aug-14 01:09 071 26.1
2020-Aug-14 01:04 071 26.1
2020-Aug-14 00:59 061 26.7
2020-Aug-14 00:54 322 0 gusting 1 26.7
2020-Aug-14 00:49 340 26.7
2020-Aug-14 00:44 150 0 gusting 2 26.7
2020-Aug-14 00:39 136 26.7
2020-Aug-14 00:29 133 4 gusting 6 26.7
2020-Aug-14 00:14 160 2 gusting 3 26.7
2020-Aug-14 00:09 167 0 gusting 0 26.7
2020-Aug-14 00:04 156 26.7
2020-Aug-13 23:09 348 0 gusting 1 26.7
2020-Aug-13 23:04 023 26.7
2020-Aug-13 22:49 004 1 gusting 5 28.3
2020-Aug-13 22:44 215 1 gusting 6 28.9
2020-Aug-13 22:39 008 2 gusting 9 29.4
2020-Aug-13 22:34 047 4 gusting 4 30.0
2020-Aug-13 22:29 018 30.0
2020-Aug-13 22:24 255 30.0
2020-Aug-13 22:14 244 30.0
2020-Aug-13 22:09 223 0 gusting 2 30.0
2020-Aug-13 22:04 310 30.6
2020-Aug-13 21:59 254 0 gusting 3 30.6
2020-Aug-13 21:54 248 30.6
2020-Aug-13 21:44 177 31.1
2020-Aug-13 21:29 250 2 gusting 5 31.1
2020-Aug-13 21:24 216 31.7
2020-Aug-13 20:59 281 1 gusting 7 31.7
2020-Aug-13 20:44 251 31.7
2020-Aug-13 20:19 309 3 gusting 3 31.1
2020-Aug-13 20:14 216 31.1
2020-Aug-13 20:09 282 2 gusting 4 31.1
2020-Aug-13 20:04 309 1 gusting 4 30.6
2020-Aug-13 19:59 306 1 gusting 4 30.6
2020-Aug-13 19:54 358 1 gusting 6 30.0
2020-Aug-13 19:49 334 1 gusting 5 30.0
2020-Aug-13 19:44 248 29.4
2020-Aug-13 19:39 322 1 gusting 6 28.9
2020-Aug-13 19:34 316 2 gusting 3 28.9
2020-Aug-13 19:29 341 0 gusting 1 28.3
2020-Aug-13 19:24 315 0 gusting 1 27.8
2020-Aug-13 19:19 293 0 gusting 1 27.8
2020-Aug-13 19:14 005 27.2
2020-Aug-13 19:09 005 26.7
2020-Aug-13 19:04 005 26.7
2020-Aug-13 18:59 005 26.7
2020-Aug-13 18:49 007 26.7
2020-Aug-13 18:44 007 26.7
2020-Aug-13 18:39 021 0 gusting 2 27.2
2020-Aug-13 18:19 285 0 gusting 1 28.9
2020-Aug-13 18:14 343 28.9
2020-Aug-13 18:09 021 28.9
2020-Aug-13 18:04 316 28.9
2020-Aug-13 17:59 045 2 gusting 9 29.4
2020-Aug-13 17:54 005 1 gusting 6 29.4
2020-Aug-13 17:49 268 0 gusting 3 30.0
2020-Aug-13 17:44 264 30.0
2020-Aug-13 17:39 291 0 gusting 3 30.0
2020-Aug-13 17:34 309 0 gusting 5 29.4
2020-Aug-13 17:29 267 30.0
2020-Aug-13 17:24 319 2 gusting 3 30.6
2020-Aug-13 17:19 281 0 gusting 3 31.1
2020-Aug-13 17:14 262 31.7
2020-Aug-13 17:09 217 0 gusting 3 32.2
2020-Aug-13 17:04 184 1 gusting 3 32.2
2020-Aug-13 16:59 247 32.2
2020-Aug-13 16:54 195 2 gusting 5 32.2
2020-Aug-13 16:49 212 0 gusting 3 32.2
2020-Aug-13 16:24 116 32.2
2020-Aug-13 16:19 203 0 gusting 2 32.2
2020-Aug-13 15:54 115 31.1
2020-Aug-13 15:39 177 31.1
2020-Aug-13 15:29 226 0 gusting 6 31.1
2020-Aug-13 15:24 225 0 gusting 6 31.1
2020-Aug-13 15:04 147 0 gusting 6 31.7
2020-Aug-13 14:17 163 3 gusting 6 28.9
2020-Aug-13 14:09 202 3 gusting 6 30.6
2020-Aug-13 14:04 189 2 gusting 5 30.0
2020-Aug-13 13:59 135 3 gusting 6 30.0
2020-Aug-13 13:54 143 5 gusting 5 30.0
2020-Aug-13 13:49 170 29.4
2020-Aug-13 13:44 206 1 gusting 5 28.9
2020-Aug-13 13:39 163 3 gusting 6 28.9
2020-Aug-13 13:34 212 1 gusting 4 28.3
2020-Aug-13 13:19 201 3 gusting 4 28.3
2020-Aug-13 13:14 198 2 gusting 4 28.3
2020-Aug-13 13:04 157 1 gusting 4 27.2
2020-Aug-13 12:59 189 0 gusting 2 27.8
2020-Aug-13 12:54 157 1 gusting 4 27.2
2020-Aug-13 12:49 191 2 gusting 6 27.2
2020-Aug-13 12:44 160 3 gusting 5 26.7
2020-Aug-13 12:39 154 4 gusting 4 26.7
2020-Aug-13 12:24 170 1 gusting 2 26.1
2020-Aug-13 12:19 178 1 gusting 3 25.6
2020-Aug-13 12:04 156 3 gusting 5 25.6
2020-Aug-13 11:59 195 3 gusting 3 25.6
2020-Aug-13 11:54 171 1 gusting 5 25.0
2020-Aug-13 11:49 181 3 gusting 3 25.0
2020-Aug-13 11:44 147 1 gusting 3 25.0
2020-Aug-13 11:39 158 3 gusting 3 25.0
2020-Aug-13 11:34 175 0 gusting 1 25.0
2020-Aug-13 11:29 053 25.0
2020-Aug-13 11:23 181 0 gusting 3 24.4
2020-Aug-13 11:18 195 0 gusting 1 24.4
2020-Aug-13 11:09 085 24.4
2020-Aug-13 11:03 113 24.4
2020-Aug-13 10:58 137 24.4
2020-Aug-13 10:54 123 0 gusting 3 24.4
2020-Aug-13 10:48 123 0 gusting 3 24.4
2020-Aug-13 10:43 160 2 gusting 3 24.4
2020-Aug-13 10:38 163 1 gusting 3 24.4
2020-Aug-13 10:33 123 1 gusting 4 24.4
2020-Aug-13 10:28 082 2 gusting 3 24.4
2020-Aug-13 10:23 122 0 gusting 2 24.4
2020-Aug-13 10:13 075 25.0
2020-Aug-13 10:03 108 25.0
2020-Aug-13 09:58 108 25.0
2020-Aug-13 09:43 191 0 gusting 1 25.0
2020-Aug-13 09:38 194 25.0
2020-Aug-13 09:28 087 25.0
2020-Aug-13 09:23 172 0 gusting 3 25.0
2020-Aug-13 09:13 050 25.0
2020-Aug-13 09:03 064 25.6